Location: Unspecified
(40.7945°N, 0.0000°E)
Time: 09:20:02
(UTC+00:00)

Courier 1B - Pass Details

Date: 30 January 2021
Orbit: 962 x 1209 km, 28.3° (Epoch: 26 February)

Event Time Altitude Azimuth Distance (km) Brightness Sun altitude
Rises 20:24:01 0° 226° (SW) 3,971 11.1 -35.8°
Reaches altitude 10° 20:27:34 10° 212° (SSW) 2,968 10.2 -36.5°
Enters shadow 20:29:31 16° 199° (SSW) 2,526 9.7 -36.9°
Maximum altitude 20:32:50 22° 165° (SSE) 2,160 - -37.5°
Drops below altitude 10° 20:37:53 10° 118° (ESE) 2,836 - -38.4°
Sets 20:41:10 0° 103° (ESE) 3,748 - -39.0°
